This is the latest recevied weather packets stored in our database for station/object IU5JAE-13. If no packets are shown the sender has not sent any weather packets the latest 10 day(s).
| Time | Temp. | Humidity | Pressure | Rain* | Wind** | Luminosity | Snow |
|---|---|---|---|---|---|---|---|
| 1788414316 | 21.11° C | 79% | 1020.4 hPa | 0 mm | - | 40 W/m² | - |
| 1788413733 | 20.56° C | 82% | 1020.3 hPa | 0 mm | - | 32 W/m² | - |
| 1788413131 | 20° C | 85% | 1020.2 hPa | 0 mm | - | 24 W/m² | - |
| 1788412529 | 18.89° C | 87% | 1020 hPa | 0 mm | - | 17 W/m² | - |
| 1788411926 | 18.89° C | 88% | 1020 hPa | 0 mm | - | 11 W/m² | - |
| 1788411324 | 18.33° C | 88% | 1020 hPa | 0 mm | - | 6 W/m² | - |
| 1788410721 | 18.33° C | 88% | 1019.9 hPa | 0 mm | - | 3 W/m² | - |
| 1788410119 | 18.33° C | 88% | 1019.8 hPa | 0 mm | - | 1 W/m² | - |
| 1788409517 | 18.33° C | 88% | 1019.9 hPa | 0 mm | - | 0 W/m² | - |
| 1788408934 | 18.33° C | 87% | 1019.8 hPa | 0 mm | - | 0 W/m² | - |
| 1788408332 | 18.33° C | 88% | 1019.8 hPa | 0 mm | - | 0 W/m² | - |
| 1788407729 | 18.89° C | 87% | 1019.9 hPa | 0 mm | - | 0 W/m² | - |
| 1788407127 | 18.89° C | 86% | 1019.7 hPa | 0 mm | - | 0 W/m² | - |
| 1788406525 | 18.89° C | 87% | 1019.8 hPa | 0 mm | - | 0 W/m² | - |
| 1788405922 | 18.89° C | 87% | 1019.8 hPa | 0 mm | - | 0 W/m² | - |
| 1788405320 | 18.89° C | 87% | 1019.7 hPa | 0 mm | - | 0 W/m² | - |
| 1788404718 | 18.89° C | 88% | 1019.8 hPa | 0 mm | - | 0 W/m² | - |
| 1788404135 | 18.89° C | 88% | 1019.8 hPa | 0 mm | - | 0 W/m² | - |
| 1788403533 | 18.89° C | 89% | 1020 hPa | 0 mm | - | 0 W/m² | - |
| 1788402931 | 18.89° C | 90% | 1020.1 hPa | 0 mm | - | 0 W/m² | - |
| 1788402328 | 18.89° C | 90% | 1020.1 hPa | 0 mm | - | 0 W/m² | - |
| 1788401726 | 18.89° C | 89% | 1020.3 hPa | 0 mm | - | 0 W/m² | - |
| 1788401123 | 19.44° C | 88% | 1020.2 hPa | 0 mm | - | 0 W/m² | - |
| 1788400521 | 20° C | 87% | 1020.2 hPa | 0 mm | - | 0 W/m² | - |
| 1788399918 | 20° C | 87% | 1020.2 hPa | 0 mm | - | 0 W/m² | - |
* Rain latest hour (hover to see other rain measurements)
** Current wind speed in m/s (hover to see current wind gust speed)